CST,Max TemperatureF,Mean TemperatureF,Min TemperatureF,Max Dew PointF,MeanDew PointF,Min DewpointF,Max Humidity, Mean Humidity, Min Humidity, Max Sea Level PressureIn, Mean Sea Level PressureIn, Min Sea Level PressureIn, Max VisibilityMiles, Mean VisibilityMiles, Min VisibilityMiles, Max Wind SpeedMPH, Mean Wind SpeedMPH, Max Gust SpeedMPH,PrecipitationIn, CloudCover, Events, WindDirDegrees
2013-11-1,80,62,46,45,39,30,80,49,17,30.10,29.93,29.85,10,10,10,21,6,30,0.00,0,,306
2013-11-2,72,60,48,41,35,25,66,43,18,30.31,30.23,30.12,10,10,9,15,7,21,0.00,0,,358
2013-11-3,66,54,42,48,37,35,76,55,34,30.24,30.15,30.01,10,6,2,12,2,21,0.00,1,,158
2013-11-4,63,60,57,61,58,51,96,89,72,30.06,30.02,29.97,10,7,4,12,7,22,0.00,8,Rain,114
2013-11-5,75,69,63,68,65,61,96,88,69,30.05,29.99,29.90,10,9,5,14,7,18,0.00,8,Rain,153
2013-11-6,70,60,50,67,51,36,97,82,47,30.36,30.19,29.97,10,9,2,16,9,24,0.06,6,Rain,335
2013-11-7,63,52,42,41,35,29,71,53,29,30.49,30.42,30.37,10,10,10,13,8,20,0.00,0,,20
2013-11-8,62,54,46,43,38,33,77,55,35,30.39,30.29,30.16,10,10,10,9,3,,0.00,3,,164
2013-11-9,64,59,54,56,50,42,81,71,64,30.20,30.16,30.11,10,10,8,14,6,18,0.00,8,,172
2013-11-10,68,61,54,55,54,50,93,81,61,30.34,30.27,30.19,10,9,5,7,3,,0.00,6,,97
2013-11-11,73,60,46,53,49,44,90,70,46,30.29,30.24,30.17,10,10,10,5,2,,0.00,1,,75
2013-11-12,55,47,37,53,41,21,92,72,46,30.67,30.50,30.28,10,7,2,20,10,33,0.00,4,,6
2013-11-13,54,42,30,26,23,20,67,50,29,30.67,30.56,30.41,10,10,10,12,6,,0.00,0,,34
2013-11-14,60,46,33,42,32,24,75,56,26,30.39,30.19,30.05,10,10,10,15,4,22,0.00,2,,177
2013-11-15,77,62,48,56,51,43,90,69,43,30.04,29.95,29.86,10,10,10,10,5,17,0.00,1,,181
2013-11-16,75,68,61,68,62,57,90,79,66,29.91,29.82,29.74,10,10,10,16,11,25,0.00,4,Rain,179
2013-11-17,84,70,57,68,58,45,96,65,26,29.96,29.85,29.77,10,10,7,13,7,18,0.00,2,Rain,220
2013-11-18,72,64,55,52,46,39,69,50,45,30.15,30.08,29.96,10,10,10,13,7,20,0.00,4,,42
2013-11-19,70,62,53,48,42,38,67,52,33,30.16,30.06,30.00,10,10,10,10,5,,0.00,1,,119
2013-11-20,69,63,57,64,56,46,100,77,67,30.01,29.96,29.89,10,9,2,12,7,17,0.00,8,Rain,151
2013-11-21,75,70,64,68,66,62,100,90,73,30.13,30.00,29.93,9,5,0,15,6,20,0.75,7,Fog-Rain-Thunderstorm,160
2013-11-22,60,46,33,58,36,30,96,91,87,30.44,30.33,30.13,10,6,0,20,13,29,0.49,8,Fog-Rain-Snow-Thunderstorm,352
2013-11-23,39,36,33,36,33,31,100,91,82,30.51,30.45,30.41,10,7,2,17,11,24,0.02,8,Rain-Snow,1
2013-11-24,39,34,30,32,29,25,96,81,64,30.51,30.41,30.32,10,8,2,16,10,24,0.08,8,Rain-Snow,30
2013-11-25,39,36,32,35,32,29,96,90,79,30.35,30.22,30.12,10,7,1,13,4,21,0.40,8,Rain-Snow,13
2013-11-26,51,43,35,32,30,24,86,68,39,30.39,30.25,30.16,10,9,3,22,12,31,0.00,5,Rain-Snow,333
2013-11-27,50,40,30,27,22,15,75,55,27,30.51,30.42,30.37,10,10,9,13,7,21,0.00,0,Snow,348
2013-11-28,53,42,30,28,25,20,82,59,31,30.46,30.41,30.35,10,10,10,7,2,,0.00,0,,129
2013-11-29,57,44,30,47,39,26,100,82,59,30.52,30.44,30.37,10,7,0,8,2,,0.00,6,Fog,174
2013-11-30,62,55,48,53,48,43,97,81,69,30.38,30.29,30.19,10,10,6,8,5,,0.00,6,,182